[[{"header":{"parameterUnit":"m.s-1","parameterCategory":2,"la1":30.2991,"la2":30.254,"lo1":-89.0895,"lo2":-89.0444,"dy":0.0017,"dx":0.0017,"nx":28,"ny":28,"refTime":"2025-01-06T09:00:00:Z","depth":"0","parameterNumber":2,"parameterNumberName":"U-component_of_CURRENTS"},"data":[0,0,0,0,0,0,0,0,0,0,0,0,0,0,0,0,0,0,0,0,0,0,0,0,0,0,0,0,0,0,0,0,0,0,0,0,0,0,0,0,0,0,0,0,0,0,0,0,0,0,0,0,0,0,0,0,0,0,0.3128,0.3127,0,0.3114,0.3115,0.3115,0.3121,0.312,0.312,0.3119,0.3162,0.3164,0.3165,0,0,0,0,0,0,0,0,0,0,0,0,0,0.3159,0.316,0.3128,0.3127,0.3126,0.3114,0.3115,0.3115,0.3121,0.312,0.312,0.3119,0.3162,0.3164,0.3166,0,0,0,0,0,0,0,0,0,0,0,0,0,0.3155,0.316,0.3128,0.312,0.3119,0.3114,0.3115,0.3115,0.3121,0.312,0.3119,0.3119,0.3161,0.3163,0.3166,0.3197,0,0,0.3173,0.3175,0,0,0,0,0,0,0,0,0.3155,0.3155,0.3123,0.3121,0.3119,0.311,0.3141,0.3142,0.3121,0.313,0.3119,0.3118,0.3144,0.3148,0.316,0.3199,0.3201,0.3174,0.3175,0.3176,0.3177,0,0,0,0,0,0,0,0.3155,0.3155,0.3132,0.3121,0.3119,0.3116,0.3116,0.3142,0.3151,0.313,0.3127,0.3111,0.3145,0.3158,0.3161,0.3202,0.3174,0.3176,0.3177,0.3178,0.3323,0.3326,0,0,0,0,0,0,0.3139,0.3156,0.3132,0.3131,0.3124,0.3116,0.3116,0.3121,0.3149,0.3149,0.3112,0.3111,0.3154,0.3158,0.3163,0.3211,0.3176,0.3179,0.318,0.3321,0.3324,0.3326,0,0,0,0,0,0,0.314,0.3138,0.3133,0.3134,0.3132,0.3115,0.3122,0.3121,0.3136,0.3133,0.3136,0.3125,0.3153,0.3159,0.3189,0.3212,0.318,0.3182,0.3318,0.3322,0.3325,0.3301,0,0,0,0,0,0,0.3142,0.3139,0.3145,0.3134,0.3131,0.3127,0.3122,0.3121,0.3121,0.3121,0.3146,0.3148,0.3153,0.3185,0.3191,0.3215,0.3184,0.3315,0.332,0.3324,0.3299,0.3303,0.3307,0,0,0,0,0,0.3143,0.3151,0.3146,0.3143,0.3138,0.3126,0.3126,0.3117,0.3123,0.3129,0.3149,0.3148,0.3219,0.3188,0.3195,0.322,0.3313,0.3318,0.3324,0.3297,0.3302,0.3307,0,0,0,0,0,0,0.3169,0.3151,0.3146,0.3149,0.3134,0.3123,0.313,0.3124,0.3147,0.315,0.3163,0.3168,0.3206,0.3228,0.3194,0.3282,0.3273,0.328,0.325,0.3256,0.326,0.3247,0.3186,0,0,0,0,0,0.3175,0.3173,0.3155,0.3153,0.3158,0.3149,0.3146,0.3133,0.314,0.315,0.3161,0.3196,0.3236,0.3253,0.3283,0.3324,0.3343,0.3355,0.3359,0.3362,0.3362,0.3394,0.3399,0.3344,0.3344,0.3344,0,0,0.3172,0.3167,0.316,0.3156,0.3159,0.3176,0.315,0.3142,0.3155,0.3153,0.3189,0.3202,0.3251,0.3292,0.3314,0.331,0.3396,0.3369,0.337,0.3369,0.34,0.3404,0.3409,0.3347,0.3347,0.3346,0,0,0.3174,0.3181,0.3185,0.3194,0.3183,0.3184,0.3184,0.3175,0.3177,0.3194,0.3211,0.3232,0.3286,0.3317,0.3347,0.34,0.3412,0.3425,0.3433,0.3464,0.3467,0.3471,0.352,0.3528,0.343,0.343,0.343,0,0.3183,0.3185,0.3181,0.3209,0.3218,0.3197,0.3218,0.3226,0.3218,0.3214,0.3204,0.3275,0.3301,0.3368,0.3385,0.3405,0.343,0.3399,0.3464,0.3467,0.3471,0.3521,0.353,0.3429,0.343,0.343,0.343,0,0.3188,0.3207,0.322,0.3253,0.3269,0.3273,0.3285,0.3283,0.3275,0.3265,0.3291,0.3317,0.3354,0.3378,0.3395,0.345,0.3464,0.3455,0.3435,0.3474,0.3527,0.3536,0.3429,0.3429,0.3429,0.3429,0,0,0.3182,0.3213,0.3222,0.3244,0.329,0.3296,0.3333,0.3336,0.3362,0.3333,0.3363,0.3401,0.3381,0.3417,0.3441,0.3467,0.3516,0.3471,0.3473,0.3494,0.3599,0.3669,0.3686,0.3507,0.3508,0.3509,0.3631,0,0.3192,0.3224,0.3248,0.3297,0.3326,0.3344,0.3391,0.3394,0.3401,0.3425,0.3412,0.3463,0.3414,0.3449,0.3451,0.3522,0.3537,0.3485,0.3583,0.3587,0.362,0.3698,0.3793,0.3914,0.364,0.3641,0.3642,0,0.3198,0.3222,0.3251,0.3319,0.3338,0.3367,0.3425,0.346,0.3491,0.3502,0.3502,0.3514,0.3557,0.3514,0.358,0.3549,0.3563,0.3592,0.3597,0.3673,0.3673,0.3832,0.3942,0.3997,0.3657,0.3656,0.3655,0,0.317,0.3233,0.3242,0.3268,0.3341,0.3356,0.3399,0.3456,0.3512,0.3557,0.361,0.3616,0.3676,0.3663,0.3702,0.365,0.3787,0.3727,0.3792,0.3797,0.3907,0.392,0.4058,0.375,0.375,0.3749,0.3749,0,0.3165,0.3188,0.3222,0.3234,0.3281,0.3346,0.3415,0.3454,0.3556,0.3623,0.3644,0.3722,0.3716,0.3782,0.3756,0.3835,0.3825,0.3818,0.384,0.3907,0.3918,0.3992,0.3962,0.3754,0.3753,0.3752,0.3751,0,0.3127,0.3145,0.3175,0.3235,0.326,0.3293,0.3431,0.3479,0.3597,0.3698,0.3727,0.3841,0.3939,0.3953,0.4005,0.3961,0.3963,0.4015,0.411,0.4139,0.4218,0.4183,0.3989,0.3885,0.4104,0.4106,0.4109,0,0.3102,0.3101,0.3156,0.3171,0.3192,0.3266,0.3314,0.3458,0.3532,0.3758,0.3795,0.3969,0.4068,0.4217,0.4227,0.4258,0.4084,0.4313,0.4213,0.4271,0.4246,0.3914,0.3813,0.436,0.4364,0.4367,0.437,0,0.306,0.3065,0.3076,0.311,0.3145,0.3221,0.3309,0.3399,0.3565,0.3713,0.3907,0.404,0.4247,0.4379,0.4464,0.4455,0.4233,0.4379,0.4421,0.4455,0.412,0.4018,0.4236,0.44,0.4397,0.4394,0.4393,0.4392,0.3014,0.3006,0.3007,0.304,0.3087,0.3154,0.3212,0.335,0.352,0.3757,0.3917,0.4191,0.4505,0.468,0.4615,0.4726,0.442,0.4694,0.4648,0.4303,0.4186,0.4477,0.4665,0.4664,0.4663,0.4662,0.4661,0,0.294,0.2926,0.2943,0.2973,0.2997,0.3059,0.3182,0.3264,0.3439,0.3763,0.3986,0.4479,0.4747,0.4917,0.5156,0.5085,0.4711,0.4983,0.4604,0.4487,0.4824,0.4834,0.5091,0.5091,0.5091,0.5091,0.5091,0.5091,0.289,0.2848,0.2856,0.2868,0.2901,0.2943,0.3007,0.3164,0.3416,0.3808,0.4147,0.4402,0.491,0.538,0.5509,0.5376,0.5012,0.482,0.462,0.504,0.5009,0.4979,0.4987,0.5271,0.5271,0.4177,0.4171,0.4166]},{"header":{"parameterUnit":"m.s-1","parameterCategory":2,"la1":30.2991,"la2":30.254,"lo1":-89.0895,"lo2":-89.0444,"dy":0.0017,"dx":0.0017,"nx":28,"ny":28,"refTime":"2025-01-06T09:00:00:Z","depth":"0","parameterNumber":3,"parameterNumberName":"V-component_of_CURRENTS"},"data":[0,0,0,0,0,0,0,0,0,0,0,0,0,0,0,0,0,0,0,0,0,0,0,0,0,0,0,0,0,0,0,0,0,0,0,0,0,0,0,0,0,0,0,0,0,0,0,0,0,0,0,0,0,0,0,0,0,0,-0.0121,-0.012,0,-0.0099,-0.0099,-0.0099,-0.0134,-0.0135,-0.0136,-0.0136,-0.0219,-0.022,-0.0222,0,0,0,0,0,0,0,0,0,0,0,0,0,-0.0144,-0.0144,-0.0121,-0.012,-0.0119,-0.0098,-0.0099,-0.0099,-0.0134,-0.0135,-0.0136,-0.0137,-0.0218,-0.022,-0.0222,0,0,0,0,0,0,0,0,0,0,0,0,0,-0.0133,-0.0144,-0.0121,-0.0131,-0.0131,-0.0098,-0.0099,-0.0099,-0.0134,-0.0135,-0.0136,-0.0137,-0.0218,-0.022,-0.0222,-0.0211,0,0,-0.0229,-0.023,0,0,0,0,0,0,0,0,-0.0134,-0.0133,-0.013,-0.013,-0.0131,-0.0116,-0.0137,-0.014,-0.0133,-0.0138,-0.0136,-0.0138,-0.0191,-0.0195,-0.0193,-0.0215,-0.0219,-0.0229,-0.023,-0.0231,-0.0232,0,0,0,0,0,0,0,-0.0134,-0.0134,-0.0117,-0.0129,-0.0129,-0.0119,-0.012,-0.0137,-0.0163,-0.0137,-0.0139,-0.0129,-0.0192,-0.0191,-0.0195,-0.022,-0.0229,-0.0231,-0.0232,-0.0233,-0.0293,-0.0294,0,0,0,0,0,0,-0.0129,-0.0134,-0.0117,-0.0115,-0.013,-0.0118,-0.0119,-0.0123,-0.0161,-0.0165,-0.0128,-0.013,-0.0186,-0.0193,-0.0199,-0.0191,-0.0231,-0.0233,-0.0235,-0.0293,-0.0293,-0.0294,0,0,0,0,0,0,-0.013,-0.0129,-0.0118,-0.012,-0.0117,-0.0116,-0.0121,-0.0122,-0.0119,-0.0151,-0.0159,-0.0122,-0.0188,-0.0196,-0.0212,-0.0195,-0.0234,-0.0236,-0.0293,-0.0293,-0.0294,-0.0174,0,0,0,0,0,0,-0.0131,-0.013,-0.0131,-0.012,-0.0117,-0.0085,-0.0119,-0.0121,-0.0109,-0.0112,-0.0149,-0.0158,-0.0189,-0.0208,-0.0214,-0.0198,-0.0238,-0.0292,-0.0293,-0.0293,-0.0178,-0.017,-0.0164,0,0,0,0,0,-0.0132,-0.0122,-0.0132,-0.0129,-0.012,-0.0083,-0.008,-0.0086,-0.0107,-0.0092,-0.0127,-0.0157,-0.0217,-0.0209,-0.0216,-0.0201,-0.0292,-0.0293,-0.0293,-0.0181,-0.0172,-0.0164,0,0,0,0,0,0,-0.0129,-0.0124,-0.0135,-0.0124,-0.01,-0.0087,-0.0077,-0.0078,-0.009,-0.0103,-0.0146,-0.0156,-0.0167,-0.0206,-0.0197,-0.0227,-0.0265,-0.0267,-0.0177,-0.0169,-0.0163,-0.0141,-0.024,0,0,0,0,0,-0.0128,-0.0121,-0.0109,-0.0095,-0.0091,-0.0084,-0.0072,-0.0067,-0.0073,-0.0079,-0.0106,-0.0147,-0.0174,-0.0188,-0.0218,-0.0222,-0.026,-0.0226,-0.0219,-0.0213,-0.0204,-0.0236,-0.023,-0.0296,-0.0296,-0.0296,0,0,-0.0116,-0.0115,-0.0108,-0.0092,-0.0087,-0.0063,-0.0081,-0.0051,-0.0026,-0.0087,-0.008,-0.0117,-0.0171,-0.0177,-0.0188,-0.0207,-0.0218,-0.0214,-0.0207,-0.0202,-0.0236,-0.023,-0.0224,-0.0296,-0.0296,-0.0296,0,0,-0.0075,-0.0097,-0.0073,-0.0061,-0.0039,-0.0035,-0.0024,-0.0009,-0.0003,0.0008,-0.0037,-0.0059,-0.0101,-0.0125,-0.0147,-0.0124,-0.0178,-0.0147,-0.0091,-0.0121,-0.0115,-0.011,-0.0152,-0.0152,-0.0145,-0.0145,-0.0145,0,-0.0067,-0.0037,-0.0054,-0.0031,-0.0015,-0.0023,0.0014,0.0024,0.0037,0.0047,0.0018,-0.0036,-0.0073,-0.008,-0.0075,-0.0103,-0.0139,-0.0107,-0.0108,-0.0104,-0.0101,-0.0145,-0.0146,-0.0139,-0.014,-0.0141,-0.0141,0,-0.0001,0.0014,0.0029,0.0043,0.0057,0.0094,0.0099,0.0119,0.0112,0.0115,0.0112,0.0062,0.0028,0.001,-0.0022,-0.0021,-0.0059,-0.0088,-0.0115,-0.0086,-0.0136,-0.0139,-0.0131,-0.0133,-0.0135,-0.0136,0,0,0.003,0.007,0.0071,0.0099,0.0101,0.0132,0.0158,0.0195,0.0216,0.0206,0.0226,0.0184,0.015,0.0121,0.0075,0.0051,0.0044,-0.0002,-0.0007,-0.0021,-0.0032,-0.0065,-0.0073,0.0019,0.0019,0.0019,-0.0075,0,0.0087,0.0164,0.0154,0.0218,0.0256,0.024,0.0265,0.0287,0.0284,0.0296,0.0256,0.024,0.0193,0.0172,0.0148,0.0072,0.004,0.0072,-0.0079,-0.0084,-0.0097,-0.0075,-0.0053,-0.0135,-0.0079,-0.008,-0.008,0,0.0149,0.0196,0.0281,0.0322,0.0331,0.0354,0.0388,0.0413,0.041,0.0404,0.0381,0.0332,0.0303,0.0246,0.0149,0.017,0.0081,0.0015,0.0009,-0.0063,-0.0122,-0.0159,-0.0144,-0.0366,-0.0086,-0.0086,-0.0085,0,0.0213,0.0274,0.0356,0.037,0.0412,0.0438,0.0446,0.0448,0.049,0.0463,0.0477,0.0411,0.039,0.0283,0.0156,0.0147,0.0037,-0.0001,-0.0117,-0.0122,-0.0154,-0.0161,-0.0349,-0.0079,-0.0079,-0.0078,-0.0078,0,0.028,0.0336,0.0395,0.0439,0.0525,0.0501,0.0573,0.0568,0.0574,0.0626,0.0535,0.056,0.04,0.032,0.0183,0.0034,0.0054,-0.0101,-0.0142,-0.0115,-0.0117,-0.0354,-0.0518,-0.0082,-0.0081,-0.008,-0.008,0,0.034,0.0381,0.0478,0.054,0.0566,0.0619,0.0674,0.0719,0.0697,0.0757,0.0753,0.0684,0.0576,0.0403,0.0221,0.008,-0.0225,-0.0144,-0.0107,-0.0141,-0.0457,-0.0615,-0.0838,-0.1025,-0.0288,-0.029,-0.0291,0,0.0383,0.0449,0.0565,0.063,0.0662,0.0739,0.0796,0.0795,0.085,0.085,0.0896,0.0795,0.078,0.0495,0.0212,-0.0048,-0.0274,-0.0233,-0.0247,-0.0469,-0.0676,-0.0739,-0.0886,-0.0251,-0.0252,-0.0252,-0.0253,0,0.0467,0.0513,0.0597,0.0738,0.0819,0.0923,0.0994,0.1065,0.1067,0.1116,0.1157,0.1133,0.0851,0.0626,0.0236,0.0024,-0.043,-0.0253,-0.0488,-0.0669,-0.0745,-0.0944,-0.0212,-0.0258,-0.0257,-0.0257,-0.0256,-0.0256,0.0528,0.0604,0.0723,0.0852,0.0955,0.1082,0.1168,0.1258,0.1369,0.1463,0.141,0.1481,0.1079,0.0572,0.0175,-0.0458,-0.0493,-0.0613,-0.0789,-0.0829,-0.1009,-0.0294,-0.0382,-0.0382,-0.0383,-0.0383,-0.0383,0,0.0607,0.0697,0.0824,0.0981,0.1104,0.1141,0.1291,0.1385,0.1533,0.1708,0.1776,0.1741,0.1187,0.0593,-0.0262,-0.0821,-0.1066,-0.1147,-0.1242,-0.1376,-0.0726,-0.0723,-0.0882,-0.0882,-0.0881,-0.0881,-0.0881,-0.0881,0.0656,0.0794,0.0862,0.1084,0.1188,0.1344,0.1432,0.1581,0.1755,0.2038,0.2216,0.2294,0.1953,0.0327,-0.0856,-0.1251,-0.1748,-0.1821,-0.2101,-0.165,-0.1612,-0.1576,-0.1608,-0.1949,-0.1951,-0.264,-0.2647,-0.2653]}],[{"header":{"parameterUnit":"m.s-1","parameterCategory":2,"la1":30.2991,"la2":30.254,"lo1":-89.0895,"lo2":-89.0444,"dy":0.0017,"dx":0.0017,"nx":28,"ny":28,"refTime":"2025-01-06T09:00:00:Z","depth":"2","parameterNumber":2,"parameterNumberName":"U-component_of_CURRENTS"},"data":[0,0,0,0,0,0,0,0,0,0,0,0,0,0,0,0,0,0,0,0,0,0,0,0,0,0,0,0,0,0,0,0,0,0,0,0,0,0,0,0,0,0,0,0,0,0,0,0,0,0,0,0,0,0,0,0,0,0,0.3083,0.3082,0,0.3043,0.3044,0.3044,0.304,0.304,0.3039,0.3039,0.3087,0.3089,0.309,0,0,0,0,0,0,0,0,0,0,0,0,0,0.3127,0.3127,0.3083,0.3082,0.308,0.3043,0.3044,0.3044,0.304,0.304,0.3039,0.3039,0.3086,0.3088,0.309,0,0,0,0,0,0,0,0,0,0,0,0,0,0.3109,0.3127,0.3083,0.3067,0.3064,0.3043,0.3044,0.3044,0.304,0.304,0.3039,0.3038,0.3086,0.3088,0.3091,0.3121,0,0,0.3099,0.31,0,0,0,0,0,0,0,0,0.311,0.3109,0.3071,0.3068,0.3065,0.3037,0.3076,0.3071,0.304,0.306,0.3039,0.3038,0.3073,0.3076,0.3083,0.3123,0.3125,0.3099,0.31,0.3101,0.3102,0,0,0,0,0,0,0,0.3111,0.311,0.3077,0.3069,0.3065,0.3051,0.3049,0.3075,0.308,0.3058,0.3055,0.3036,0.3073,0.308,0.3084,0.3126,0.3099,0.3101,0.3103,0.3104,0.323,0.3231,0,0,0,0,0,0,0.3099,0.3111,0.3078,0.3075,0.3075,0.305,0.3048,0.3055,0.3078,0.3077,0.3036,0.3035,0.3076,0.3081,0.3086,0.3139,0.3101,0.3104,0.3105,0.3228,0.323,0.3232,0,0,0,0,0,0,0.3101,0.3098,0.308,0.3083,0.3078,0.3049,0.3057,0.3054,0.3067,0.3058,0.3061,0.3051,0.3076,0.3082,0.3118,0.314,0.3105,0.3107,0.3226,0.3229,0.3231,0.3236,0,0,0,0,0,0,0.3103,0.31,0.3106,0.3083,0.3077,0.3069,0.3057,0.3054,0.3051,0.305,0.3072,0.3075,0.3076,0.3114,0.312,0.3143,0.3109,0.3223,0.3227,0.323,0.3234,0.3239,0.3243,0,0,0,0,0,0.3105,0.3113,0.3108,0.3102,0.3087,0.3068,0.3066,0.3047,0.3053,0.306,0.3079,0.3075,0.314,0.3117,0.3124,0.3149,0.3222,0.3226,0.323,0.3232,0.3238,0.3243,0,0,0,0,0,0,0.3135,0.3111,0.3105,0.3107,0.3087,0.3063,0.3067,0.3058,0.308,0.3083,0.3094,0.3099,0.3137,0.3151,0.3126,0.3199,0.3183,0.3189,0.3182,0.3188,0.3192,0.3177,0.3112,0,0,0,0,0,0.3143,0.314,0.3117,0.3113,0.3117,0.31,0.3092,0.3074,0.3078,0.3087,0.3095,0.3123,0.316,0.3179,0.3201,0.3243,0.3258,0.3268,0.3273,0.3276,0.3272,0.3303,0.3309,0.3245,0.3245,0.3245,0,0,0.3139,0.3132,0.3124,0.3118,0.3114,0.313,0.3098,0.3084,0.3096,0.3091,0.3125,0.3134,0.3175,0.3213,0.3234,0.3228,0.3311,0.3281,0.3284,0.3277,0.3308,0.3314,0.3319,0.3248,0.3248,0.3247,0,0,0.314,0.3149,0.3153,0.316,0.3143,0.3139,0.314,0.3122,0.3122,0.3139,0.315,0.317,0.3217,0.3243,0.327,0.3321,0.3329,0.3337,0.335,0.3382,0.3386,0.339,0.3443,0.3451,0.3343,0.3343,0.3343,0,0.315,0.3151,0.3147,0.3174,0.318,0.3156,0.3175,0.3181,0.3166,0.3159,0.3151,0.3208,0.3234,0.3297,0.3312,0.3329,0.3352,0.332,0.3384,0.3389,0.3393,0.3445,0.3455,0.3344,0.3344,0.3344,0.3344,0,0.3154,0.3173,0.3186,0.3219,0.3233,0.3234,0.3244,0.324,0.3231,0.3214,0.3236,0.3261,0.3289,0.3311,0.3329,0.3381,0.3391,0.3379,0.3361,0.3399,0.3453,0.3463,0.3345,0.3345,0.3345,0.3345,0,0,0.3148,0.3178,0.3187,0.3209,0.3254,0.3257,0.3295,0.3294,0.3319,0.3284,0.3313,0.3347,0.3324,0.3355,0.3376,0.3404,0.3463,0.3403,0.3405,0.3439,0.3549,0.3616,0.3633,0.3454,0.3455,0.3456,0.3583,0,0.3158,0.3188,0.3212,0.326,0.3289,0.3306,0.3354,0.3352,0.3358,0.338,0.3363,0.3411,0.3359,0.3394,0.3398,0.3466,0.3485,0.3431,0.352,0.3524,0.3564,0.3644,0.3227,0.331,0.3592,0.3594,0.3595,0,0.3163,0.3187,0.3215,0.3282,0.3301,0.333,0.3388,0.3422,0.345,0.3459,0.3455,0.3463,0.3506,0.3463,0.3528,0.3496,0.3511,0.354,0.3545,0.3607,0.3608,0.3315,0.3317,0.3611,0.361,0.3609,0.3608,0,0.3136,0.3197,0.3206,0.3232,0.3304,0.3319,0.3361,0.3417,0.3471,0.3516,0.3567,0.357,0.3631,0.3617,0.3654,0.3602,0.3738,0.3679,0.3742,0.3747,0.3411,0.3387,0.3702,0.3701,0.3701,0.3701,0.37,0,0.3131,0.3154,0.3187,0.3198,0.3245,0.331,0.3378,0.3417,0.3518,0.3583,0.3602,0.3679,0.3672,0.3736,0.371,0.3786,0.3779,0.3767,0.379,0.341,0.3385,0.3648,0.364,0.3706,0.3704,0.3704,0.3703,0,0.3094,0.3111,0.314,0.32,0.3225,0.3257,0.3395,0.3442,0.356,0.366,0.3688,0.38,0.3897,0.3908,0.396,0.3915,0.3953,0.3967,0.355,0.3523,0.3919,0.391,0.405,0.4054,0.4057,0.4059,0.4061,0,0.3069,0.3068,0.3122,0.3137,0.3157,0.3231,0.3279,0.3422,0.3495,0.372,0.3756,0.3927,0.4,0.4146,0.402,0.4012,0.4091,0.3732,0.356,0.395,0.3958,0.3944,0.3932,0.3106,0.31,0.3095,0.3091,0,0.3027,0.3032,0.3044,0.3077,0.3111,0.3187,0.3274,0.3363,0.3528,0.364,0.3831,0.3939,0.4028,0.3849,0.3878,0.3805,0.37,0.3648,0.4129,0.3131,0.3083,0.3084,0.3097,0.3048,0.3052,0.3056,0.3058,0.306,0.2982,0.2974,0.2974,0.3007,0.3054,0.312,0.3177,0.3164,0.3282,0.3286,0.362,0.3558,0.3645,0.3421,0.3369,0.3285,0.3539,0.3379,0.3381,0.3391,0.3308,0.3273,0.3258,0.3263,0.3268,0.3272,0.3276,0,0.2883,0.2895,0.2911,0.294,0.2913,0.3025,0.3146,0.3008,0.2945,0.2937,0.2966,0.2773,0.2715,0.2818,0.2582,0.269,0.2508,0.2656,0.2339,0.2387,0.2429,0.2283,0.1968,0.1965,0.1961,0.1958,0,0,0.2827,0.277,0.2777,0.2746,0.2805,0.2675,0.2733,0.2494,0.238,0.2147,0.2068,0.2218,0.2581,0.2109,0.217,0.2022,0.2148,0.1936,0.2974,0.2634,0.2669,0.2846,0.2682,0,0,0,0,0]},{"header":{"parameterUnit":"m.s-1","parameterCategory":2,"la1":30.2991,"la2":30.254,"lo1":-89.0895,"lo2":-89.0444,"dy":0.0017,"dx":0.0017,"nx":28,"ny":28,"refTime":"2025-01-06T09:00:00:Z","depth":"2","parameterNumber":3,"parameterNumberName":"V-component_of_CURRENTS"},"data":[0,0,0,0,0,0,0,0,0,0,0,0,0,0,0,0,0,0,0,0,0,0,0,0,0,0,0,0,0,0,0,0,0,0,0,0,0,0,0,0,0,0,0,0,0,0,0,0,0,0,0,0,0,0,0,0,0,0,-0.0079,-0.0079,0,-0.0041,-0.0041,-0.0041,-0.0068,-0.0069,-0.007,-0.0071,-0.0155,-0.0157,-0.0158,0,0,0,0,0,0,0,0,0,0,0,0,0,-0.011,-0.011,-0.008,-0.0079,-0.0078,-0.0041,-0.0041,-0.004,-0.0068,-0.0069,-0.007,-0.0071,-0.0155,-0.0156,-0.0158,0,0,0,0,0,0,0,0,0,0,0,0,0,-0.0091,-0.011,-0.008,-0.0084,-0.0084,-0.0041,-0.0041,-0.004,-0.0068,-0.0069,-0.0071,-0.0072,-0.0154,-0.0156,-0.0158,-0.0147,0,0,-0.0165,-0.0166,0,0,0,0,0,0,0,0,-0.0092,-0.009,-0.0084,-0.0083,-0.0083,-0.0057,-0.0082,-0.0081,-0.0068,-0.0079,-0.0071,-0.0072,-0.013,-0.0134,-0.0129,-0.0151,-0.0155,-0.0165,-0.0167,-0.0168,-0.0168,0,0,0,0,0,0,0,-0.0093,-0.0092,-0.0069,-0.0083,-0.0082,-0.0064,-0.0064,-0.0081,-0.0104,-0.0078,-0.0079,-0.0067,-0.0131,-0.0126,-0.0131,-0.0156,-0.0165,-0.0167,-0.0169,-0.017,-0.0208,-0.0208,0,0,0,0,0,0,-0.0091,-0.0093,-0.007,-0.0067,-0.0086,-0.0062,-0.0062,-0.0068,-0.0101,-0.0105,-0.0066,-0.0068,-0.0122,-0.0129,-0.0134,-0.013,-0.0168,-0.017,-0.0171,-0.0208,-0.0208,-0.0207,0,0,0,0,0,0,-0.0092,-0.009,-0.0071,-0.0075,-0.007,-0.0061,-0.0066,-0.0066,-0.0062,-0.0089,-0.0097,-0.0062,-0.0123,-0.0131,-0.0151,-0.0134,-0.0171,-0.0173,-0.0209,-0.0208,-0.0208,-0.0117,0,0,0,0,0,0,-0.0094,-0.0091,-0.0094,-0.0075,-0.007,-0.0036,-0.0064,-0.0064,-0.0051,-0.0054,-0.0088,-0.0097,-0.0125,-0.0147,-0.0153,-0.0137,-0.0174,-0.0209,-0.0208,-0.0208,-0.012,-0.0114,-0.0108,0,0,0,0,0,-0.0095,-0.0085,-0.0095,-0.0091,-0.0075,-0.0034,-0.0029,-0.0029,-0.0049,-0.0034,-0.0068,-0.0096,-0.0148,-0.0148,-0.0155,-0.014,-0.0209,-0.0208,-0.0208,-0.0123,-0.0115,-0.0108,0,0,0,0,0,0,-0.0093,-0.0086,-0.0096,-0.0084,-0.0058,-0.0037,-0.0024,-0.0023,-0.0035,-0.0046,-0.0088,-0.0098,-0.0107,-0.0139,-0.0138,-0.0152,-0.0185,-0.0185,-0.0118,-0.0111,-0.0105,-0.0082,-0.0176,0,0,0,0,0,-0.0095,-0.0087,-0.0072,-0.0057,-0.0052,-0.004,-0.0025,-0.0017,-0.002,-0.0026,-0.005,-0.0085,-0.0107,-0.0122,-0.0144,-0.0148,-0.0183,-0.0147,-0.014,-0.0134,-0.0123,-0.0155,-0.0149,-0.0205,-0.0205,-0.0205,0,0,-0.0082,-0.0079,-0.0072,-0.0055,-0.0046,-0.0021,-0.0036,-0.0003,0.0023,-0.0035,-0.0026,-0.0059,-0.0104,-0.0107,-0.0115,-0.0133,-0.0139,-0.0134,-0.0128,-0.0119,-0.0153,-0.0148,-0.0143,-0.0205,-0.0205,-0.0205,0,0,-0.004,-0.0063,-0.0039,-0.0026,-0.0001,0.0006,0.0016,0.0037,0.0044,0.0055,0.0016,-0.0005,-0.0039,-0.0058,-0.0077,-0.0051,-0.0102,-0.0065,-0.0014,-0.0045,-0.004,-0.0037,-0.008,-0.0081,-0.0064,-0.0064,-0.0064,0,-0.0033,-0.0002,-0.0019,0.0004,0.0022,0.0015,0.0053,0.0064,0.0082,0.0093,0.0064,0.0024,-0.0012,-0.0016,-0.0009,-0.0033,-0.0067,-0.0036,-0.0035,-0.0032,-0.0029,-0.0075,-0.0077,-0.006,-0.006,-0.006,-0.0061,0,0.0034,0.0049,0.0064,0.0078,0.0092,0.013,0.0136,0.0157,0.0152,0.0158,0.0159,0.0111,0.0085,0.007,0.0038,0.0041,0.0006,-0.0019,-0.0048,-0.0018,-0.0068,-0.0072,-0.0053,-0.0055,-0.0056,-0.0057,0,0,0.0064,0.0105,0.0106,0.0134,0.0136,0.0168,0.0193,0.0232,0.0254,0.0246,0.0268,0.023,0.0199,0.0175,0.0132,0.0106,0.0089,0.0056,0.0053,0.0025,0.001,-0.0023,-0.0031,0.0064,0.0064,0.0064,-0.0034,0,0.0122,0.0198,0.0189,0.0253,0.029,0.0275,0.03,0.0323,0.0321,0.0334,0.0297,0.0284,0.0239,0.0219,0.0193,0.0119,0.0085,0.0117,-0.0025,-0.0029,-0.0052,-0.0034,0.0006,-0.0078,-0.0038,-0.0038,-0.0039,0,0.0183,0.023,0.0315,0.0356,0.0365,0.0388,0.0422,0.0446,0.0445,0.044,0.042,0.0373,0.0343,0.0287,0.019,0.0212,0.0123,0.0057,0.0051,-0.001,-0.0068,-0.0102,-0.0087,-0.0046,-0.0045,-0.0045,-0.0044,0,0.0246,0.0308,0.039,0.0404,0.0446,0.0471,0.048,0.0482,0.0524,0.0498,0.0512,0.0448,0.0427,0.032,0.0195,0.0186,0.0075,0.0038,-0.0078,-0.0083,-0.0092,-0.0097,-0.004,-0.004,-0.004,-0.0039,-0.0039,0,0.0313,0.0368,0.0428,0.0472,0.0557,0.0534,0.0605,0.06,0.0607,0.0659,0.0569,0.0594,0.0436,0.0356,0.022,0.0071,0.009,-0.0063,-0.0104,-0.0062,-0.0062,-0.0068,-0.007,-0.0043,-0.0042,-0.0042,-0.0041,0,0.0372,0.0413,0.051,0.0572,0.0598,0.065,0.0705,0.0751,0.0729,0.0789,0.0784,0.0716,0.0608,0.0436,0.0254,0.0115,-0.0043,-0.0109,-0.0055,-0.0087,-0.0192,-0.0189,-0.0252,-0.0254,-0.0256,-0.0257,-0.0258,0,0.0415,0.0481,0.0596,0.0661,0.0692,0.0769,0.0826,0.0826,0.0881,0.0881,0.0926,0.0825,0.0808,0.0523,0.0255,-0.0002,-0.0049,-0.0183,-0.0194,-0.0177,-0.0211,-0.0205,-0.0199,-0.0179,-0.0179,-0.0179,-0.018,0,0.0498,0.0543,0.0627,0.0768,0.0848,0.0952,0.1023,0.1094,0.1097,0.1147,0.1187,0.1161,0.0889,0.0651,0.0263,0.008,-0.014,-0.0199,-0.0188,-0.0128,-0.0115,-0.0146,-0.0141,-0.0182,-0.0182,-0.0182,-0.0182,-0.0181,0.0558,0.0633,0.0752,0.088,0.0983,0.111,0.1196,0.1306,0.142,0.1511,0.1414,0.1393,0.1046,0.0613,0.0249,-0.0141,-0.0117,-0.0272,-0.0268,-0.0264,-0.0235,-0.0225,-0.0308,-0.0309,-0.0309,-0.0309,-0.031,0,0.0644,0.0725,0.0851,0.1008,0.1145,0.1168,0.1318,0.1454,0.163,0.1701,0.1742,0.1423,0.1091,0.0694,0.0139,-0.0214,-0.023,-0.0352,-0.029,-0.0285,-0.0281,-0.0251,-0.033,-0.0331,-0.0332,-0.0333,0,0,0.0695,0.0835,0.0902,0.1133,0.123,0.1442,0.1532,0.1734,0.1857,0.1985,0.1946,0.1808,0.1274,0.0853,0.0359,0.0028,-0.0042,-0.0043,0.0014,0.0153,0.0162,-0.0194,-0.0137,0,0,0,0,0]}],[{"header":{"parameterUnit":"m.s-1","parameterCategory":2,"la1":30.2991,"la2":30.254,"lo1":-89.0895,"lo2":-89.0444,"dy":0.0017,"dx":0.0017,"nx":28,"ny":28,"refTime":"2025-01-06T09:00:00:Z","depth":"4","parameterNumber":2,"parameterNumberName":"U-component_of_CURRENTS"},"data":[0,0,0,0,0,0,0,0,0,0,0,0,0,0,0,0,0,0,0,0,0,0,0,0,0,0,0,0,0,0,0,0,0,0,0,0,0,0,0,0,0,0,0,0,0,0,0,0,0,0,0,0,0,0,0,0,0,0,0.1669,0.167,0,0.1727,0.1727,0.1728,0.1776,0.1777,0.1778,0.1778,0.1814,0.1815,0.1815,0,0,0,0,0,0,0,0,0,0,0,0,0,0.1546,0.1548,0.1668,0.167,0.1671,0.1727,0.1727,0.1728,0.1775,0.1777,0.1778,0.1779,0.1814,0.1815,0.1815,0,0,0,0,0,0,0,0,0,0,0,0,0,0.1596,0.1549,0.1668,0.1706,0.171,0.1727,0.1727,0.1728,0.1775,0.1777,0.1778,0.178,0.1814,0.1814,0.1815,0.1785,0,0,0.1815,0.1815,0,0,0,0,0,0,0,0,0.1593,0.16,0.1699,0.1703,0.1708,0.175,0.1698,0.1748,0.1775,0.1744,0.1779,0.178,0.1793,0.1795,0.1795,0.1786,0.1788,0.1815,0.1815,0.1815,0.1815,0,0,0,0,0,0,0,0.159,0.1598,0.1686,0.17,0.1706,0.1702,0.1711,0.1707,0.1755,0.1747,0.1752,0.1767,0.1795,0.1795,0.1797,0.1788,0.1815,0.1815,0.1815,0.1815,0.1904,0.1906,0,0,0,0,0,0,0.1595,0.1595,0.1684,0.1688,0.1659,0.1704,0.1713,0.1731,0.1756,0.1763,0.1766,0.1769,0.1794,0.1797,0.1798,0.1905,0.1815,0.1815,0.1815,0.1901,0.1904,0.1907,0,0,0,0,0,0,0.1592,0.1603,0.1682,0.1647,0.1658,0.1705,0.1724,0.1731,0.178,0.1771,0.1777,0.1814,0.1796,0.1798,0.185,0.1902,0.1815,0.1815,0.1898,0.1902,0.1905,0.2028,0,0,0,0,0,0,0.1588,0.1601,0.1626,0.1647,0.166,0.1737,0.1723,0.1732,0.1787,0.1793,0.1813,0.1815,0.1797,0.1851,0.185,0.19,0.1815,0.1895,0.19,0.1904,0.2021,0.2036,0.2048,0,0,0,0,0,0.1584,0.161,0.1626,0.1638,0.1689,0.174,0.1747,0.178,0.1788,0.1825,0.1843,0.1817,0.1878,0.1853,0.1852,0.1903,0.1893,0.1899,0.1904,0.2015,0.2033,0.2047,0,0,0,0,0,0,0.1569,0.1618,0.1637,0.1678,0.1728,0.1751,0.1783,0.1806,0.1846,0.1864,0.1845,0.1849,0.191,0.1891,0.1863,0.1942,0.1882,0.1887,0.1967,0.1983,0.1996,0.1983,0.1815,0,0,0,0,0,0.1577,0.1616,0.1662,0.1702,0.1726,0.1761,0.1789,0.1827,0.1859,0.188,0.1891,0.1905,0.192,0.1943,0.1947,0.1992,0.1968,0.2024,0.2038,0.2049,0.2039,0.2073,0.2089,0.1924,0.1924,0.1924,0,0,0.1585,0.1616,0.1641,0.1703,0.1734,0.177,0.1783,0.1853,0.1894,0.1875,0.1934,0.195,0.1941,0.1994,0.202,0.1994,0.2085,0.2056,0.2066,0.2049,0.208,0.2096,0.211,0.1927,0.1927,0.1926,0,0,0.1607,0.1647,0.1684,0.1722,0.1796,0.1817,0.185,0.1908,0.1951,0.2011,0.2009,0.2064,0.208,0.2097,0.2099,0.2186,0.2149,0.2199,0.2264,0.2299,0.2313,0.2324,0.2318,0.2328,0.2213,0.2213,0.2213,0,0.1612,0.1663,0.1706,0.1741,0.1776,0.1839,0.1884,0.1926,0.2001,0.2046,0.205,0.2115,0.212,0.2179,0.2218,0.2216,0.2218,0.2206,0.2316,0.2327,0.2337,0.2328,0.2337,0.222,0.2219,0.2218,0.2218,0,0.1651,0.1698,0.1723,0.1781,0.1825,0.1886,0.1945,0.2016,0.207,0.2113,0.2209,0.2228,0.2271,0.2292,0.228,0.2366,0.2338,0.2325,0.2275,0.2361,0.2346,0.2353,0.2229,0.2227,0.2225,0.2223,0,0,0.1633,0.1732,0.1743,0.1779,0.186,0.19,0.198,0.2072,0.2131,0.2219,0.2284,0.2352,0.2391,0.2396,0.2412,0.245,0.2529,0.2431,0.243,0.2422,0.2591,0.2457,0.2451,0.2551,0.2553,0.2554,0.2553,0,0.1652,0.1733,0.1775,0.1845,0.1885,0.196,0.2012,0.211,0.2191,0.2267,0.2341,0.2399,0.2422,0.2459,0.2512,0.2517,0.2554,0.2528,0.2509,0.2507,0.2376,0.2457,0.2561,0.2559,0.256,0.2561,0.2562,0,0.1667,0.172,0.1803,0.1884,0.1908,0.1956,0.2072,0.2136,0.2257,0.2321,0.2423,0.2464,0.2555,0.2541,0.2625,0.2615,0.2617,0.2612,0.2612,0.2441,0.2387,0.2453,0.2575,0.2574,0.2573,0.2572,0.2571,0,0.1637,0.1731,0.1806,0.1834,0.1933,0.1993,0.2052,0.217,0.2245,0.2364,0.243,0.2529,0.2594,0.2625,0.2668,0.2652,0.2723,0.269,0.2564,0.2553,0.2617,0.2605,0.2732,0.2732,0.2732,0.2732,0.2732,0,0.1625,0.168,0.1806,0.1839,0.1916,0.1987,0.2084,0.2162,0.2279,0.2352,0.2466,0.2531,0.2628,0.269,0.2685,0.266,0.2752,0.2574,0.2553,0.2669,0.2662,0.2622,0.2609,0.2732,0.2732,0.2732,0.2732,0,0.158,0.1667,0.1747,0.1868,0.1908,0.1966,0.2099,0.2154,0.2285,0.2381,0.2423,0.2572,0.2639,0.2708,0.2747,0.2681,0.2652,0.2619,0.2736,0.2721,0.2441,0.2435,0.244,0.2435,0.2431,0.2428,0.2426,0,0.1563,0.1609,0.1758,0.1799,0.186,0.1959,0.2009,0.2145,0.22,0.2384,0.2404,0.2542,0.2616,0.2561,0.2645,0.2617,0.2597,0.255,0.249,0.2437,0.2416,0.2416,0.2415,0.2419,0.2418,0.2417,0.2416,0,0.1517,0.1597,0.1664,0.1751,0.1819,0.1878,0.1966,0.1995,0.2131,0.2288,0.2318,0.235,0.2427,0.2455,0.2477,0.2454,0.2554,0.2508,0.2515,0.2458,0.2412,0.2395,0.2399,0.2403,0.2405,0.2406,0.2407,0,0.1487,0.1519,0.1616,0.167,0.1744,0.1745,0.1816,0.1857,0.1927,0.2115,0.2124,0.2258,0.2395,0.2373,0.2388,0.2367,0.2313,0.2207,0.2228,0.2244,0.2186,0.21,0.1978,0,0,0,0,0,0.1438,0.1458,0.1513,0.1546,0.1606,0.1639,0.1748,0.1817,0.1961,0.192,0.2012,0.206,0.2093,0.2176,0.2112,0.2308,0.2328,0.2223,0.2218,0.2329,0.2344,0.2298,0,0,0,0,0,0,0.1407,0.1468,0.1477,0.1419,0.1405,0.1441,0.1498,0.1599,0.1588,0.1753,0.1786,0.192,0.1992,0.2095,0.2064,0.2088,0.2037,0.232,0.2314,0.232,0.2334,0.2346,0.2304,0,0,0,0,0]},{"header":{"parameterUnit":"m.s-1","parameterCategory":2,"la1":30.2991,"la2":30.254,"lo1":-89.0895,"lo2":-89.0444,"dy":0.0017,"dx":0.0017,"nx":28,"ny":28,"refTime":"2025-01-06T09:00:00:Z","depth":"4","parameterNumber":3,"parameterNumberName":"V-component_of_CURRENTS"},"data":[0,0,0,0,0,0,0,0,0,0,0,0,0,0,0,0,0,0,0,0,0,0,0,0,0,0,0,0,0,0,0,0,0,0,0,0,0,0,0,0,0,0,0,0,0,0,0,0,0,0,0,0,0,0,0,0,0,0,0.0318,0.0317,0,0.028,0.028,0.028,0.0261,0.026,0.026,0.0259,0.0229,0.0229,0.0229,0,0,0,0,0,0,0,0,0,0,0,0,0,0.0397,0.0396,0.0318,0.0317,0.0316,0.028,0.028,0.028,0.0261,0.026,0.0259,0.0259,0.0229,0.0229,0.0229,0,0,0,0,0,0,0,0,0,0,0,0,0,0.0367,0.0396,0.0319,0.0298,0.0296,0.028,0.028,0.028,0.0261,0.026,0.0259,0.0259,0.023,0.0229,0.0229,0.0241,0,0,0.0227,0.0227,0,0,0,0,0,0,0,0,0.0368,0.0364,0.0302,0.03,0.0297,0.0269,0.0296,0.0265,0.0261,0.028,0.0259,0.0258,0.0241,0.0239,0.0241,0.024,0.0239,0.0227,0.0227,0.0227,0.0227,0,0,0,0,0,0,0,0.0371,0.0366,0.0309,0.0301,0.0298,0.0298,0.0294,0.0291,0.027,0.0278,0.0275,0.0263,0.024,0.0242,0.024,0.0238,0.0227,0.0227,0.0226,0.0226,0.0261,0.0262,0,0,0,0,0,0,0.0364,0.0368,0.031,0.0307,0.0325,0.0297,0.0292,0.0283,0.0269,0.0265,0.0263,0.0262,0.0243,0.0241,0.0239,0.0248,0.0227,0.0226,0.0226,0.0259,0.0261,0.0262,0,0,0,0,0,0,0.0366,0.0359,0.0311,0.0332,0.0325,0.0296,0.0287,0.0283,0.0286,0.0257,0.0253,0.0269,0.0242,0.024,0.0239,0.0246,0.0226,0.0226,0.0258,0.026,0.0261,0.0268,0,0,0,0,0,0,0.0368,0.036,0.0364,0.0332,0.0324,0.0305,0.0287,0.0283,0.0276,0.0274,0.026,0.0257,0.0242,0.0239,0.0238,0.0245,0.0225,0.0256,0.0259,0.0261,0.0266,0.027,0.0273,0,0,0,0,0,0.0371,0.0381,0.0365,0.0358,0.0326,0.0305,0.0303,0.0283,0.0277,0.0283,0.0272,0.0257,0.0253,0.024,0.0238,0.0245,0.0255,0.0258,0.0261,0.0265,0.0269,0.0273,0,0,0,0,0,0,0.0422,0.0378,0.036,0.0356,0.0331,0.03,0.0307,0.0289,0.0287,0.0284,0.0266,0.0262,0.0267,0.0262,0.0248,0.0266,0.0255,0.0258,0.0259,0.0263,0.0266,0.0274,0.0225,0,0,0,0,0,0.0431,0.0427,0.0381,0.0381,0.037,0.034,0.0333,0.0311,0.0295,0.0294,0.0282,0.0277,0.0279,0.0274,0.0274,0.0279,0.026,0.0288,0.0291,0.0294,0.0302,0.0272,0.0272,0.0271,0.0271,0.0271,0,0,0.0449,0.0426,0.0422,0.0391,0.0375,0.037,0.0337,0.0322,0.0322,0.0291,0.0302,0.0288,0.0285,0.0289,0.0292,0.0283,0.0285,0.0297,0.0299,0.0306,0.0274,0.0274,0.0274,0.0273,0.0272,0.0272,0,0,0.0483,0.0464,0.0468,0.0451,0.0416,0.0396,0.0393,0.0358,0.035,0.0348,0.0329,0.0318,0.0324,0.0312,0.0311,0.0337,0.0306,0.0343,0.0358,0.0328,0.0327,0.0326,0.0296,0.0292,0.0341,0.0341,0.0341,0,0.0506,0.0503,0.0469,0.0469,0.0463,0.0412,0.0418,0.0405,0.0374,0.0368,0.0356,0.0349,0.0337,0.0339,0.0345,0.0342,0.032,0.0337,0.0329,0.0328,0.0327,0.0296,0.0291,0.0341,0.0341,0.0341,0.0341,0,0.0533,0.0537,0.0542,0.0526,0.0518,0.0513,0.0478,0.0467,0.0449,0.0427,0.0419,0.0393,0.0387,0.038,0.037,0.0361,0.0345,0.0335,0.0311,0.0326,0.0294,0.0289,0.0342,0.0342,0.0342,0.0342,0,0,0.0567,0.0562,0.0564,0.0574,0.0545,0.0542,0.054,0.0522,0.0526,0.0486,0.0493,0.047,0.0438,0.0437,0.0409,0.0377,0.0341,0.0353,0.0351,0.031,0.027,0.024,0.0231,0.032,0.032,0.0319,0.0247,0,0.0599,0.0621,0.0606,0.0636,0.0645,0.0609,0.0621,0.0595,0.0572,0.0566,0.0515,0.0516,0.0466,0.0461,0.0418,0.0373,0.033,0.0361,0.0274,0.0272,0.0231,0.0226,0.0318,0.0243,0.0242,0.0242,0.0241,0,0.0623,0.0638,0.0673,0.0694,0.0696,0.0709,0.071,0.0709,0.0677,0.066,0.0622,0.0584,0.0537,0.0497,0.0395,0.0415,0.0346,0.0296,0.0291,0.026,0.0233,0.0229,0.0232,0.0233,0.0233,0.0234,0.0235,0,0.0659,0.0686,0.0722,0.0727,0.074,0.0756,0.076,0.0738,0.0751,0.0719,0.072,0.0646,0.0623,0.0523,0.0406,0.0402,0.029,0.0274,0.0175,0.0172,0.0215,0.0217,0.0195,0.0195,0.0195,0.0195,0.0195,0,0.069,0.0722,0.0749,0.0768,0.0824,0.0809,0.0857,0.084,0.0838,0.0859,0.0775,0.0765,0.0628,0.054,0.0427,0.0284,0.0299,0.0176,0.015,0.0221,0.0225,0.0211,0.0214,0.0192,0.0193,0.0193,0.0194,0,0.0717,0.0734,0.0785,0.0821,0.0844,0.0881,0.0931,0.096,0.094,0.0964,0.0958,0.0862,0.0739,0.0587,0.043,0.0319,0.0187,0.0129,0.0217,0.0198,0.0082,0.0087,0.0017,0.0016,0.0014,0.0013,0.0012,0,0.0729,0.0757,0.0831,0.0876,0.0901,0.0961,0.1008,0.1017,0.1051,0.1019,0.1037,0.092,0.0835,0.0593,0.0423,0.0192,0.0151,0.0076,0.0071,0.0082,0.0063,0.007,0.0076,0.001,0.0009,0.0009,0.0009,0,0.0752,0.0783,0.0826,0.0923,0.0993,0.1074,0.1137,0.1171,0.1176,0.116,0.1097,0.0945,0.0801,0.0595,0.0407,0.0242,0.0124,0.006,0.0062,0.0057,0.0072,0.0057,0.0064,0.0004,0.0004,0.0005,0.0005,0,0.0769,0.0807,0.0874,0.096,0.1059,0.1154,0.1186,0.1219,0.1246,0.12,0.1179,0.0996,0.0891,0.062,0.0454,0.0279,0.0229,0.0168,0.0163,0.0166,0.022,0.0262,0.0228,0,0,0,0,0,0.0775,0.082,0.0902,0.1004,0.1108,0.1178,0.126,0.1283,0.1293,0.126,0.1217,0.1073,0.0788,0.0668,0.049,0.0424,0.0202,0.0207,0.0131,-0.0024,-0.0018,0.0016,0,0,0,0,0,0,0.0776,0.0849,0.0897,0.1032,0.1117,0.1242,0.1306,0.1317,0.1296,0.1263,0.1125,0.1021,0.0762,0.0898,0.0487,0.0431,0.0354,0.0073,0.0068,-0.0027,-0.0022,-0.0017,0.002,0,0,0,0,0]}]]